Regional Weather Roundup
Issued by NWS Grand Forks, ND

Home | Current Version | Previous Version | Text Only | Print | Product List | Glossary Off
Versions: 1 2 3 4 5 6 7 8 9 10 11 12 13 14 15 16 17 18 19 20 21 22 23 24 25 26 27 28 29 30 31 32 33 34 35 36 37 38 39 40 41 42 43 44 45 46 47 48 49 50

000
ASUS43 KFGF 031431
RWRFGF
PRAIRIE TO PINES  WEATHER ROUNDUP
NATIONAL WEATHER SERVICE EASTERN NORTH DAKOTA/GRAND FORKS ND
900 AM CDT MON AUG 03 2015

 **SATELLITE DATA USED TO AUGMENT SKY COVER AT AUTOMATED STATIONS**
 *****  WEATHER ACROSS EASTERN NORTH DAKOTA  *****

CITY           SKY/WX    TMP DP  RH WIND       PRES   REMARKS
GRAND FORKS    SUNNY     63  53  70 NW8       29.93R
GRAND FRKS AFB SUNNY     63  52  66 N8        29.94R
GRAND FRKS NWS   N/A     61 N/A N/A NW5         N/A
DEVILS LAKE    SUNNY     64  48  55 NW10      29.97S
FARGO          SUNNY     64  53  67 N6        29.94R
WAHPETON ARPT  SUNNY     64  50  59 NW7       29.96S
$$

 ***** WEATHER ACROSS CENTRAL AND WESTERN NORTH DAKOTA  *****

CITY           SKY/WX    TMP DP  RH WIND       PRES   REMARKS
BISMARCK       SUNNY     62  53  72 SW7       30.04R
MINOT          SUNNY     64  50  60 W6        30.02R
JAMESTOWN      SUNNY     64  54  69 NW9       29.99R
MINOT AFB      SUNNY     65  54  66 NW8       30.01R
GARRISON         N/A     63  55  75 VRB3      30.03S
WILLISTON      SUNNY     62  50  64 CALM      30.06R
DICKINSON      SUNNY     63  51  65 CALM      30.05S
HETTINGER      SUNNY     64  52  64 CALM      30.07S
$$

 *****  OTHER AIRPORT OBSERVATIONS IN OUR AREA  *****

CITY           SKY/WX    TMP DP  RH WIND       PRES   REMARKS
WALHALLA       FAIR      63  54  72 MISG      29.95S
GRAFTON AIRPOR FAIR      63  54  72 NW10      29.95R
VALLEY CITY AR FAIR      64  55  72 NW8       29.99R
CANDO          FAIR      63  54  72 NW9       29.99S
CAVALIER APRT  FAIR      64  52  63 N13G20    29.94S
GWINNER        FAIR      66  54  63 NW9       29.98S
SHEYENNE NWR     N/A     65  55  71 NW7       29.95
ROLLA          FAIR      63  50  63 NW10      30.00S
 ***** THE ABOVE OBSERVATIONS ARE NON NWS ARE NOT QUALITY
       CONTROLLED AND MAY MIS-REPORT RAIN FOR SNOW...
$$

  *****  WEATHER ACROSS NORTHERN MINNESOTA  *****

CITY           SKY/WX    TMP DP  RH WIND       PRES   REMARKS
FLAG ISLAND    CLOUDY    57  54  88 NW17      29.85R
WARROAD        SUNNY     61  54  77 W12G17    29.88S
ROSEAU         SUNNY     63  54  72 W12       29.88F
HALLOCK        SUNNY     63  54  72 NW9       29.93R
THF RVR FALLS  SUNNY     63  52  67 NW13G18   29.93R
BAUDETTE       CLOUDY    60  52  74 W12       29.86R
WASKISH        SUNNY     63  54  72 W10G18    29.88S
CROOKSTON      SUNNY     63  54  72 NW7         N/A
STEPHEN NDAWN    N/A     63  54  72 N13         N/A
GREENBUSH NDAW   N/A     63  52  67 NW10        N/A
$$
  *****  WEATHER ACROSS CENTRAL AND WEST MINNESOTA  *****

CITY           SKY/WX    TMP DP  RH WIND       PRES   REMARKS
FOSSTON        SUNNY     61  50  67 NW7       29.93S
BEMIDJI        SUNNY     62  50  63 NW14G21   29.91R
PARK RAPIDS    SUNNY     63  51  65 NW8       29.92S
ELBOW LAKE     FAIR      62  54  75 NW8       29.96R
WADENA         SUNNY     64  50  59 NW7       29.93S
DETROIT LAKES  SUNNY     63  50  63 NW8       29.95S
MOORHEAD       SUNNY     63  54  72 NW3       29.95S
FERGUS FALLS   SUNNY     63  54  72 N3        29.95S
MORRIS MN      SUNNY     64  55  72 NW7       29.95S
STAPLES        SUNNY     64  48  55 NW9       29.93S
$$
  *****  WEATHER ELSEWHERE ACROSS MINNESOTA  *****

CITY           SKY/WX    TMP DP  RH WIND       PRES   REMARKS
DULUTH         MOSUNNY   64  51  62 NW14      29.82S
INTRNTL FALLS  CLOUDY    61  53  75 W12       29.82R
ELY            CLOUDY    59  50  72 NW14      29.80R
CLOQUET        SUNNY     64  48  55 NW13G22   29.84S
WHEATON        SUNNY     64  54  68 NW7       29.98S
BRAINERD       SUNNY     65  48  54 NW13      29.91R
HIBBING        CLOUDY    62  51  67 NW9G23    29.84S
ALEXANDRIA     SUNNY     64  53  67 NW7       29.96R
SAINT CLOUD    SUNNY     65  52  62 NW9       29.92R
MINNEAPOLIS    SUNNY     70  52  52 W7        29.90R
$$

  *****  WEATHER ACROSS SOUTH DAKOTA  *****

CITY           SKY/WX    TMP DP  RH WIND       PRES   REMARKS
SIOUX FALLS    MOSUNNY   68  60  75 W3        30.00R
BROOKINGS      SUNNY     66  57  72 W5        30.02S
WATERTOWN      SUNNY     67  57  70 N3        29.99R
HURON          SUNNY     66  60  81 NW3       29.99S
SISSETON         N/A     69  53  56 N8        29.96R
ABERDEEN       SUNNY     66  54  65 CALM      30.00R
MITCHELL       SUNNY     66  61  84 CALM      30.01R
PIERRE         SUNNY     65  56  72 CALM      30.01R
MOBRIDGE       SUNNY     65  58  78 W7        30.01R
RAPID CITY     MOSUNNY   68  56  65 SE5       30.05S
$$

  *****  SOME WEATHER IN NEARBY STATES *****

CITY           SKY/WX    TMP DP  RH WIND       PRES   REMARKS
GLASGOW MT     SUNNY     65  48  54 E13       30.02F
GREAT FALLS MT MOSUNNY   64  49  57 CALM      29.95S
CHEYENNE WY    PTSUNNY   67  50  54 SW3       30.14S
SCOTTSBLUFF NE PTSUNNY   67  58  72 N3        30.03S
OMAHA NE       PTSUNNY   75  62  64 CALM      29.99R
DES MOINES IA  MOSUNNY   74  56  53 N6        29.96R
DAVENPORT IA   SUNNY     72  58  61 N10       29.91R
CHICAGO IL     MOSUNNY   73  58  59 N14       29.84R
EAU CLAIRE WI  SUNNY     67  52  58 W8        29.86R
LA CROSSE WI   SUNNY     71  53  52 W3        29.88S
$$

  *****  SOME NATIONAL WEATHER *****

CITY           SKY/WX    TMP DP  RH WIND       PRES   REMARKS
LA GUARDIA NY  MOSUNNY   83  60  45 SW8       29.84S
RALEIGH NC     MOSUNNY   81  73  76 SW6       29.95S
ATLANTA GA     MOSUNNY   79  69  71 S7        29.97R
NEW ORLEANS LA PTSUNNY   86  73  65 N6        29.92R HX  93
OKLAHOMA CITY  CLOUDY    74  66  76 SW3       29.98R
ALBUQUERQUE NM MOSUNNY   66  60  81 S3        30.18R
SALT LAKE CITY RAIN      63  60  90 NW15      30.07R
LOS ANGELES CA PTCLDY    68  64  87 VRB3      29.89S
BOISE ID       CLOUDY    77  47  34 N6        29.89R
SEATTLE WA     CLOUDY    64  55  72 SW5       29.93R
$$

*** WEATHER ACROSS MANITOBA...SASKATCHEWAN AND ONTARIO ***
                ***ONTARIO***

CITY           SKY/WX    TMP DP  RH WIND       PRES   REMARKS
GERALDTON      LGT RAIN  54  50  87 NW12G17   29.64R
THUNDER BAY    PTSUNNY   61  52  72 NW12      29.71R
SIOUX LOOKOUT  CLOUDY    55  50  82 NW10      29.76R
TORONTO        PTSUNNY   70  61  73 W16G31    29.70S
BIG TROUT LK   CLOUDY    48  46  93 NW9       29.70
PICKLE LAKE    LGT RAIN  50  46  87 NW6       29.69R
DRYDEN         CLOUDY    55  50  82 W12G17    29.79R
KENORA         NOT AVBL
$$
                *** MANITOBA***

CITY           SKY/WX    TMP DP  RH WIND       PRES   REMARKS
BRANDON        MOSUNNY   57  54  88 W7        29.98R
DAUPHIN        SUNNY     61  54  77 W9        29.95S
ISLAND LAKE    LGT RAIN  50  48  93 N10       29.82
PILOT MOUND      N/A     57  52  82 NW6         N/A
THE PAS        MOSUNNY   63  50  63 NW5       29.92S
THOMPSON       CLOUDY    54  50  87 N7        29.88R
WINNIPEG       MOSUNNY   63  50  63 NW17G24   29.92R
LYNN LAKE      CLOUDY    54  48  82 N8        29.94S
CHURCHILL      CLOUDY    46  45  93 N9        29.88R
GILLAM         CLOUDY    46  45  93 N16       29.85R
$$
                ***SASKATCHEWAN***

CITY           SKY/WX    TMP DP  RH WIND       PRES   REMARKS
ESTEVAN          N/A     63  54  72 NW3       30.04S
KINDERSLEY     PTSUNNY   64  55  72 SE9       29.98F
LLOYDMINSTER   PTSUNNY   64  52  63 SE7       29.98S
PRINCE ALBERT  MOSUNNY   61  55  82 CALM      30.00R
REGINA         PTSUNNY   64  55  72 VRB2      30.03F
YORKTON        SUNNY     61  54  77 NW6       29.99S
N. BATTLEFORD  SUNNY     63  54  72 SE3       30.02R
LA RONGE       SUNNY     63  46  55 NE7       29.98S
SASKATOON      PTSUNNY   63  55  77 CALM      30.02S
SWIFT CURRENT  SUNNY     64  55  72 S6        30.02S
$$
NOTE: THESE ARE AUTOMATED STATIONS WITH LIMITED QUALITY CONTROL
      "FAIR" INDICATES FEW OR NO CLOUDS BELOW 12,000 FEET WITH NO
      SIGNIFICANT WEATHER AND/OR OBSTRUCTIONS TO VISIBILITY.
      SKY/WX - SKY CONDITION AND SIGNIFICANT WEATHER.
      TMP - AIR TEMPERATURE.    DP   - DEWPOINT TEMPERATURE.
      RH  - RELATIVE HUMIDITY.  PRES - PRESSURE.
      HX  - HEAT INDEX.         WCI  - WIND CHILL INDEX.
$


USA.gov is the U.S. government's official web portal to all federal, state and local government web resources and services.